Alturas, CA

5:44 AM PST on December 08, 2019 (GMT -0800)
Alturas Municipal

Weather History for KAAT - October, 2019

Change the Weather History Date:

Thursday, October 17, 2019

  Actual Average Record
Temperature  
Mean Temperature 41 °F 46 °F  
Max Temperature 54 °F 65 °F 85 °F (1961)
Min Temperature 28 °F 28 °F 10 °F (1905)
Degree Days  
Heating Degree Days 24 18  
Month to date heating degree days 354 271  
Since 1 July heating degree days 660 648  
Cooling Degree Days 0 0  
Month to date cooling degree days 0 0  
Year to date cooling degree days 217 156  
Moisture  
Dew Point 34 °F    
Average Humidity 75    
Maximum Humidity 100    
Minimum Humidity 41    
Precipitation  
Precipitation 0.04 in 0.03 in 0.63 in (2015)
Month to date precipitation 0.07 0.42  
Year to date precipitation 12.30 10.08  
Sea Level Pressure  
Sea Level Pressure 29.90 in    
Wind  
Wind Speed 5 mph ()    
Max Wind Speed 23 mph    
Max Gust Speed 28 mph    
Visibility 9.7 miles    
Events Rain    
T = Trace of Precipitation, MM = Missing Value Source: Averaged Metar Reports

Daily Weather History Graph

Daily Weather History Graph

Search for Another Location

Airport or City:

Astronomy

Oct. 17, 2019 Rise Set
Actual Time 7:16 AM PDT 6:18 PM PDT
Civil Twilight 6:48 AM PDT 6:46 PM PDT
Nautical Twilight 6:16 AM PDT 7:18 PM PDT
Astronomical Twilight 5:44 AM PDT 7:50 PM PDT
Moon 8:51 PM PDT (10/17) 10:55 AM PDT (10/17)
Length of Visible Light 11h 57m
Length of Day
11h 01m
Waning Gibbous, 86% of the Moon is Illuminated
Oct 17
Waning Gibbous
Oct 21
Last Quarter
Oct 27
New
Nov 4
First Quarter
Nov 12
Full

Hourly Weather History & Observations

Time (PDT) Temp. Windchill Dew Point Humidity Pressure Visibility Wind Dir Wind Speed Gust Speed Precip Events Conditions
12:55 AM 48.9 °F - 30.0 °F 48% 29.77 in 10.0 mi West 10.4 mph - N/A   Overcast
1:55 AM 46.0 °F 41.0 °F 34.0 °F 63% 29.78 in 10.0 mi West 10.4 mph 23.0 mph N/A   Overcast
2:55 AM 46.9 °F - 34.0 °F 61% 29.74 in 10.0 mi SSW 5.8 mph - 0.00 in   Overcast
3:55 AM 46.9 °F - 34.0 °F 61% 29.74 in 10.0 mi West 8.1 mph - 0.00 in Rain Light Rain
4:15 AM 42.8 °F 34.3 °F 37.4 °F 81% 29.87 in 5.0 mi NW 19.6 mph 27.6 mph N/A Rain Light Rain
4:55 AM 39.0 °F 32.8 °F 36.0 °F 89% 29.81 in 9.0 mi NNW 9.2 mph - 0.03 in Rain Light Rain
5:25 AM 37.9 °F - 36.0 °F 93% 29.87 in 10.0 mi Calm Calm - 0.00 in   Overcast
5:55 AM 39.0 °F - 35.1 °F 86% 29.83 in 10.0 mi Calm Calm - 0.01 in   Overcast
6:10 AM 37.9 °F 34.4 °F 37.0 °F 97% 29.88 in 10.0 mi South 4.6 mph - N/A   Overcast
6:22 AM 37.9 °F 34.4 °F 37.0 °F 97% 29.88 in 10.0 mi South 4.6 mph - N/A   Overcast
6:35 AM 37.9 °F - 37.0 °F 97% 29.88 in 10.0 mi Calm Calm - N/A   Overcast
6:55 AM 37.9 °F 35.5 °F 37.0 °F 97% 29.86 in 10.0 mi South 3.5 mph - N/A   Overcast
7:41 AM 37.0 °F 33.3 °F 35.1 °F 93% 29.90 in 10.0 mi South 4.6 mph - N/A   Mostly Cloudy
7:55 AM 37.0 °F - 37.0 °F 100% 29.88 in 10.0 mi Calm Calm - N/A   Mostly Cloudy
8:05 AM 37.0 °F - 36.0 °F 96% 29.91 in 10.0 mi Calm Calm - N/A   Mostly Cloudy
8:36 AM 39.0 °F - 37.0 °F 93% 29.92 in 10.0 mi Calm Calm - N/A   Scattered Clouds
8:55 AM 41.0 °F - 37.0 °F 86% 29.89 in 10.0 mi Calm Calm - N/A   Partly Cloudy
9:55 AM 43.0 °F 41.3 °F 36.0 °F 76% 29.90 in 10.0 mi Variable 3.5 mph - N/A   Scattered Clouds
10:20 AM 43.0 °F - 36.0 °F 76% 29.94 in 10.0 mi Calm Calm - N/A   Mostly Cloudy
10:30 AM 43.0 °F - 36.0 °F 76% 29.94 in 10.0 mi Calm Calm - N/A   Scattered Clouds
10:55 AM 46.0 °F 41.9 °F 35.1 °F 66% 29.91 in 10.0 mi WNW 8.1 mph - N/A   Mostly Cloudy
11:55 AM 50.0 °F - 32.0 °F 50% 29.91 in 10.0 mi West 11.5 mph - N/A   Scattered Clouds
12:55 PM 51.1 °F - 30.0 °F 44% 29.88 in 10.0 mi West 9.2 mph - N/A   Scattered Clouds
1:55 PM 51.1 °F - 28.9 °F 43% 29.89 in 10.0 mi WNW 9.2 mph - N/A   Overcast
2:55 PM 51.1 °F - 30.9 °F 46% 29.90 in 10.0 mi West 10.4 mph - N/A   Overcast
3:55 PM 52.0 °F - 32.0 °F 47% 29.90 in 10.0 mi WNW 8.1 mph - N/A   Mostly Cloudy
4:55 PM 51.1 °F - 30.9 °F 46% 29.93 in 10.0 mi NW 9.2 mph - N/A   Mostly Cloudy
5:55 PM 48.9 °F - 30.0 °F 48% 29.94 in 10.0 mi NNW 11.5 mph - N/A   Clear
6:55 PM 44.1 °F 39.5 °F 32.0 °F 63% 29.97 in 10.0 mi NNW 8.1 mph - N/A   Clear
7:55 PM 39.9 °F - 32.0 °F 73% 29.99 in 10.0 mi Calm Calm - N/A   Clear
8:55 PM 39.9 °F 37.8 °F 32.0 °F 73% 30.00 in 10.0 mi SW 3.5 mph - N/A   Partly Cloudy
9:55 PM 34.0 °F - 30.9 °F 89% 30.02 in 10.0 mi Calm Calm - N/A   Clear
10:55 PM 30.0 °F - 28.0 °F 92% 30.05 in 7.0 mi Calm Calm - N/A   Clear
11:55 PM 30.9 °F - 28.9 °F 92% 30.04 in 10.0 mi Calm Calm - N/A   Clear